| time (UTC) | temp F | wind direction | speed knots | gust knots | rain 1hr in | rain 24hr in | rain mn in | humidity % | barometer mb |
| 20260509181034 | 53 | 319 | 8.7 | 17.4 | 0.00 | 0.00 | 0.17 | 49 | 1011.9 |
| 20260509180533 | 53 | 344 | 9.6 | 16.5 | 0.00 | 0.00 | 0.17 | 49 | 1011.9 |
| 20260509180032 | 53 | 295 | 7.8 | 15.6 | 0.00 | 0.00 | 0.17 | 50 | 1011.9 |
| 20260509175531 | 53 | 313 | 7.8 | 15.6 | 0.00 | 0.00 | 0.17 | 50 | 1012.0 |
| 20260509175033 | 53 | 338 | 7.0 | 17.4 | 0.00 | 0.00 | 0.17 | 49 | 1011.9 |
| 20260509174535 | 53 | 302 | 10.4 | 19.1 | 0.00 | 0.00 | 0.17 | 49 | 1011.9 |
| 20260509174029 | 52 | 324 | 7.8 | 16.5 | 0.00 | 0.00 | 0.17 | 50 | 1011.9 |
| 20260509173529 | 52 | 327 | 5.2 | 18.2 | 0.00 | 0.00 | 0.17 | 50 | 1011.9 |
| 20260509173029 | 52 | 312 | 8.7 | 20.0 | 0.00 | 0.00 | 0.17 | 50 | 1011.9 |
| 20260509172527 | 52 | 338 | 7.8 | 20.0 | 0.00 | 0.00 | 0.17 | 51 | 1011.9 |
| 20260509172027 | 51 | 333 | 7.8 | 17.4 | 0.00 | 0.00 | 0.17 | 52 | 1011.8 |
| 20260509171531 | 51 | 322 | 8.7 | 17.4 | 0.00 | 0.00 | 0.17 | 51 | 1011.9 |
| 20260509171025 | 51 | 297 | 7.8 | 17.4 | 0.00 | 0.00 | 0.17 | 52 | 1011.9 |
| 20260509170525 | 51 | 311 | 8.7 | 17.4 | 0.00 | 0.00 | 0.17 | 51 | 1011.9 |
| 20260509170025 | 51 | 342 | 7.8 | 14.8 | 0.00 | 0.00 | 0.17 | 52 | 1011.8 |
| 20260509165527 | 51 | 262 | 3.5 | 13.9 | 0.00 | 0.00 | 0.17 | 53 | 1011.7 |
| 20260509165023 | 51 | 288 | 7.8 | 14.8 | 0.00 | 0.00 | 0.17 | 54 | 1011.7 |
| 20260509164523 | 51 | 300 | 8.7 | 14.8 | 0.00 | 0.00 | 0.17 | 54 | 1011.8 |
| 20260509164021 | 50 | 350 | 7.0 | 13.0 | 0.00 | 0.00 | 0.17 | 54 | 1011.7 |
| 20260509163529 | 51 | 304 | 6.1 | 17.4 | 0.00 | 0.00 | 0.17 | 54 | 1011.6 |
| 20260509163023 | 50 | 342 | 8.7 | 17.4 | 0.00 | 0.00 | 0.17 | 52 | 1011.6 |
| 20260509162519 | 50 | 347 | 7.8 | 15.6 | 0.00 | 0.00 | 0.17 | 53 | 1011.6 |
| 20260509162019 | 50 | 36 | 7.8 | 15.6 | 0.00 | 0.00 | 0.17 | 54 | 1011.5 |
| 20260509161517 | 50 | 302 | 9.6 | 15.6 | 0.00 | 0.00 | 0.17 | 51 | 1011.5 |
| 20260509161016 | 50 | 296 | 6.1 | 14.8 | 0.00 | 0.00 | 0.17 | 55 | 1011.4 |
| 20260509160516 | 49 | 355 | 8.7 | 14.8 | 0.00 | 0.00 | 0.17 | 53 | 1011.3 |
| 20260509160015 | 49 | 355 | 9.6 | 18.2 | 0.00 | 0.00 | 0.17 | 54 | 1011.5 |
| 20260509155514 | 50 | 324 | 9.6 | 15.6 | 0.00 | 0.00 | 0.17 | 53 | 1011.2 |
| 20260509155013 | 49 | 340 | 7.0 | 14.8 | 0.00 | 0.00 | 0.17 | 52 | 1011.2 |
| 20260509154515 | 49 | 350 | 6.1 | 17.4 | 0.00 | 0.00 | 0.17 | 54 | 1011.2 |
| 20260509154011 | 49 | 229 | 6.1 | 17.4 | 0.00 | 0.00 | 0.17 | 55 | 1011.1 |
| 20260509153509 | 49 | 355 | 7.8 | 15.6 | 0.00 | 0.00 | 0.17 | 54 | 1011.1 |
| 20260509153020 | 49 | 288 | 6.1 | 18.2 | 0.00 | 0.00 | 0.17 | 54 | 1011.1 |
| 20260509152507 | 49 | 318 | 8.7 | 18.2 | 0.00 | 0.00 | 0.17 | 54 | 1010.9 |
| 20260509152008 | 48 | 315 | 7.0 | 16.5 | 0.00 | 0.00 | 0.17 | 55 | 1010.8 |
| 20260509151504 | 48 | 333 | 6.1 | 15.6 | 0.00 | 0.00 | 0.17 | 56 | 1010.8 |
| 20260509151002 | 48 | 334 | 7.8 | 14.8 | 0.00 | 0.00 | 0.17 | 57 | 1010.8 |
| 20260509150501 | 48 | 325 | 9.6 | 14.8 | 0.00 | 0.00 | 0.17 | 57 | 1010.7 |
| 20260509150100 | 47 | 12 | 7.8 | 14.8 | 0.00 | 0.00 | 0.17 | 57 | 1010.7 |
| 20260509145559 | 47 | 335 | 7.8 | 14.8 | 0.00 | 0.00 | 0.17 | 56 | 1010.6 |
| 20260509145058 | 47 | 5 | 8.7 | 17.4 | 0.00 | 0.00 | 0.17 | 57 | 1010.6 |
| 20260509144608 | 47 | 347 | 8.7 | 17.4 | 0.00 | 0.00 | 0.17 | 56 | 1010.6 |
| 20260509144057 | 47 | 315 | 7.0 | 15.6 | 0.00 | 0.00 | 0.17 | 58 | 1010.5 |
| 20260509143553 | 47 | 327 | 5.2 | 16.5 | 0.00 | 0.00 | 0.17 | 61 | 1010.5 |
| 20260509143116 | 46 | 320 | 8.7 | 17.4 | 0.00 | 0.00 | 0.17 | 59 | 1010.3 |
| 20260509142550 | 46 | 332 | 10.4 | 17.4 | 0.00 | 0.00 | 0.17 | 59 | 1010.3 |
| 20260509142050 | 46 | 53 | 7.0 | 13.9 | 0.00 | 0.00 | 0.17 | 60 | 1010.1 |
| 20260509141547 | 45 | 315 | 7.0 | 20.0 | 0.00 | 0.00 | 0.17 | 61 | 1010.1 |
| 20260509141047 | 45 | 325 | 9.6 | 20.0 | 0.00 | 0.00 | 0.17 | 59 | 1010.2 |
| 20260509140547 | 45 | 278 | 6.1 | 15.6 | 0.00 | 0.00 | 0.17 | 62 | 1010.1 |
| 20260509140049 | 44 | 321 | 9.6 | 15.6 | 0.00 | 0.00 | 0.17 | 61 | 1010.1 |
| 20260509135546 | 45 | 318 | 6.1 | 14.8 | 0.00 | 0.00 | 0.17 | 61 | 1010.1 |
| 20260509135046 | 45 | 22 | 7.0 | 13.9 | 0.00 | 0.00 | 0.17 | 62 | 1010.0 |
| 20260509134600 | 44 | 5 | 5.2 | 19.1 | 0.00 | 0.00 | 0.17 | 62 | 1009.9 |
| 20260509134041 | 44 | 42 | 9.6 | 19.1 | 0.00 | 0.00 | 0.17 | 62 | 1009.8 |
| 20260509133540 | 44 | 347 | 7.0 | 18.2 | 0.00 | 0.00 | 0.17 | 63 | 1009.7 |
| 20260509133045 | 44 | 286 | 7.0 | 18.2 | 0.00 | 0.00 | 0.17 | 63 | 1009.7 |
| 20260509132538 | 44 | 346 | 7.0 | 20.9 | 0.00 | 0.00 | 0.17 | 64 | 1009.5 |
| 20260509132041 | 44 | 39 | 6.1 | 15.6 | 0.00 | 0.00 | 0.17 | 64 | 1009.5 |
| 20260509131538 | 44 | 355 | 7.8 | 18.2 | 0.00 | 0.00 | 0.17 | 64 | 1009.3 |
| 20260509131035 | 43 | 26 | 6.1 | 18.2 | 0.00 | 0.00 | 0.17 | 65 | 1009.3 |
| 20260509130539 | 43 | 304 | 7.0 | 16.5 | 0.00 | 0.00 | 0.17 | 64 | 1009.2 |
| 20260509130046 | 43 | 331 | 9.6 | 16.5 | 0.00 | 0.00 | 0.17 | 65 | 1009.2 |
| 20260509125535 | 43 | 329 | 9.6 | 15.6 | 0.00 | 0.00 | 0.17 | 65 | 1009.1 |
| 20260509125032 | 43 | 5 | 6.1 | 15.6 | 0.00 | 0.00 | 0.17 | 65 | 1009.0 |
| 20260509124535 | 43 | 337 | 7.0 | 13.9 | 0.00 | 0.00 | 0.17 | 66 | 1009.0 |
| 20260509124032 | 42 | 319 | 5.2 | 13.9 | 0.00 | 0.00 | 0.17 | 68 | 1008.8 |
| 20260509123531 | 42 | 336 | 6.1 | 13.9 | 0.00 | 0.00 | 0.17 | 67 | 1008.8 |
| 20260509123031 | 42 | 325 | 5.2 | 14.8 | 0.00 | 0.00 | 0.17 | 68 | 1008.7 |
| 20260509122530 | 42 | 19 | 8.7 | 14.8 | 0.00 | 0.00 | 0.17 | 69 | 1008.6 |
| 20260509122028 | 42 | 26 | 5.2 | 12.2 | 0.00 | 0.00 | 0.17 | 70 | 1008.5 |
| 20260509121540 | 41 | 349 | 6.1 | 13.9 | 0.00 | 0.00 | 0.17 | 70 | 1008.4 |
| 20260509121027 | 41 | 13 | 6.1 | 13.9 | 0.00 | 0.00 | 0.17 | 71 | 1008.3 |
| 20260509120529 | 41 | 323 | 7.0 | 13.9 | 0.00 | 0.00 | 0.00 | 71 | 1008.3 |
| 20260509120025 | 41 | 355 | 6.1 | 14.8 | 0.00 | 0.00 | 0.00 | 72 | 1008.1 |
| 20260509115523 | 41 | 325 | 7.0 | 13.0 | 0.00 | 0.00 | 0.00 | 73 | 1008.1 |
| 20260509115022 | 41 | 46 | 5.2 | 14.8 | 0.00 | 0.00 | 0.00 | 73 | 1008.0 |
| 20260509114531 | 41 | 10 | 7.0 | 14.8 | 0.00 | 0.00 | 0.00 | 74 | 1007.8 |
| 20260509114021 | 41 | 336 | 6.1 | 13.0 | 0.00 | 0.00 | 0.00 | 75 | 1007.8 |
| 20260509113520 | 41 | 316 | 6.1 | 13.0 | 0.00 | 0.00 | 0.00 | 76 | 1007.6 |
| 20260509113024 | 40 | 333 | 5.2 | 12.2 | 0.00 | 0.00 | 0.00 | 77 | 1007.6 |
| 20260509112517 | 40 | 336 | 6.1 | 13.0 | 0.00 | 0.00 | 0.00 | 78 | 1007.4 |
| 20260509112023 | 40 | 336 | 6.1 | 13.0 | 0.00 | 0.00 | 0.00 | 78 | 1007.3 |
| 20260509111515 | 40 | 321 | 5.2 | 10.4 | 0.00 | 0.00 | 0.00 | 79 | 1007.2 |
| 20260509111014 | 40 | 311 | 5.2 | 10.4 | 0.00 | 0.00 | 0.00 | 79 | 1007.1 |
| 20260509110512 | 40 | 338 | 5.2 | 10.4 | 0.00 | 0.00 | 0.00 | 79 | 1007.0 |
| 20260509110011 | 40 | 328 | 5.2 | 11.3 | 0.00 | 0.00 | 0.00 | 79 | 1006.9 |
| 20260509105512 | 40 | 320 | 7.0 | 13.0 | 0.00 | 0.00 | 0.00 | 79 | 1006.8 |
| 20260509105009 | 40 | 348 | 6.1 | 13.0 | 0.00 | 0.00 | 0.00 | 80 | 1006.7 |
| 20260509104511 | 40 | 329 | 7.0 | 13.0 | 0.00 | 0.00 | 0.00 | 81 | 1006.5 |
| 20260509104007 | 40 | 334 | 6.1 | 13.0 | 0.00 | 0.00 | 0.00 | 82 | 1006.3 |
| 20260509103507 | 41 | 304 | 7.0 | 12.2 | 0.00 | 0.00 | 0.00 | 82 | 1006.3 |
| 20260509103005 | 41 | 332 | 6.1 | 12.2 | 0.00 | 0.00 | 0.00 | 83 | 1006.3 |
| 20260509102505 | 41 | 338 | 6.1 | 12.2 | 0.00 | 0.00 | 0.00 | 83 | 1006.3 |
| 20260509102105 | 41 | 342 | 4.3 | 12.2 | 0.00 | 0.00 | 0.00 | 84 | 1006.2 |
| 20260509101504 | 41 | 309 | 6.1 | 12.2 | 0.00 | 0.00 | 0.00 | 87 | 1006.0 |
| 20260509101100 | 41 | 336 | 8.7 | 12.2 | 0.00 | 0.00 | 0.00 | 89 | 1005.9 |
| 20260509100559 | 41 | 267 | 3.5 | 8.7 | 0.00 | 0.00 | 0.00 | 90 | 1005.9 |
| 20260509100059 | 41 | 277 | 3.5 | 8.7 | 0.00 | 0.00 | 0.00 | 90 | 1005.7 |
| 20260509095558 | 41 | 317 | 2.6 | 7.0 | 0.00 | 0.00 | 0.00 | 90 | 1005.7 |
| 20260509095057 | 41 | 279 | 3.5 | 9.6 | 0.00 | 0.00 | 0.00 | 90 | 1005.7 |
| 20260509094603 | 42 | 304 | 4.3 | 9.6 | 0.00 | 0.00 | 0.00 | 90 | 1005.6 |
| 20260509094055 | 42 | 275 | 4.3 | 9.6 | 0.00 | 0.00 | 0.00 | 90 | 1005.5 |
| 20260509093554 | 42 | 326 | 4.3 | 9.6 | 0.00 | 0.00 | 0.00 | 90 | 1005.5 |
| 20260509093103 | 42 | 290 | 3.5 | 7.8 | 0.00 | 0.00 | 0.00 | 90 | 1005.4 |
| 20260509092551 | 42 | 313 | 2.6 | 7.8 | 0.00 | 0.00 | 0.00 | 89 | 1005.2 |
| 20260509092050 | 43 | 321 | 0.9 | 7.0 | 0.00 | 0.00 | 0.00 | 89 | 1005.2 |
| 20260509091548 | 43 | 296 | 1.7 | 7.0 | 0.00 | 0.00 | 0.00 | 89 | 1005.1 |
| 20260509091048 | 43 | 355 | 0.0 | 4.3 | 0.00 | 0.00 | 0.00 | 88 | 1005.0 |
| 20260509090547 | 43 | 325 | 0.9 | 7.0 | 0.00 | 0.00 | 0.00 | 87 | 1005.0 |
| 20260509090050 | 43 | 329 | 2.6 | 7.0 | 0.00 | 0.00 | 0.00 | 87 | 1004.9 |
| 20260509085545 | 43 | 293 | 1.7 | 5.2 | 0.00 | 0.00 | 0.00 | 87 | 1004.8 |
| 20260509085044 | 43 | 316 | 1.7 | 5.2 | 0.00 | 0.00 | 0.00 | 87 | 1004.7 |
| 20260509084546 | 43 | 326 | 3.5 | 5.2 | 0.00 | 0.00 | 0.00 | 87 | 1004.6 |
| 20260509084045 | 43 | 328 | 2.6 | 5.2 | 0.00 | 0.00 | 0.00 | 87 | 1004.4 |
| 20260509083543 | 44 | 326 | 2.6 | 4.3 | 0.00 | 0.00 | 0.00 | 87 | 1004.2 |
| 20260509083042 | 44 | 351 | 1.7 | 5.2 | 0.00 | 0.00 | 0.00 | 87 | 1004.2 |
| 20260509082540 | 44 | 338 | 2.6 | 5.2 | 0.00 | 0.00 | 0.00 | 86 | 1004.1 |
| 20260509082039 | 44 | 344 | 1.7 | 7.0 | 0.00 | 0.00 | 0.00 | 86 | 1004.0 |
| 20260509081542 | 44 | 343 | 2.6 | 7.0 | 0.00 | 0.00 | 0.00 | 86 | 1004.0 |
| 20260509081037 | 44 | 355 | 1.7 | 5.2 | 0.00 | 0.00 | 0.00 | 86 | 1004.0 |
| 20260509080537 | 45 | 9 | 2.6 | 7.0 | 0.00 | 0.00 | 0.00 | 86 | 1003.9 |
| 20260509080037 | 45 | 340 | 2.6 | 8.7 | 0.00 | 0.00 | 0.00 | 85 | 1003.9 |
| 20260509075535 | 45 | 355 | 3.5 | 9.6 | 0.00 | 0.00 | 0.00 | 85 | 1003.9 |
| 20260509075035 | 45 | 20 | 2.6 | 7.8 | 0.00 | 0.00 | 0.00 | 85 | 1003.9 |
| 20260509074543 | 45 | 22 | 3.5 | 7.8 | 0.00 | 0.00 | 0.00 | 86 | 1003.9 |
| 20260509074033 | 45 | 327 | 3.5 | 10.4 | 0.00 | 0.00 | 0.00 | 86 | 1003.9 |
| 20260509073533 | 45 | 347 | 3.5 | 8.7 | 0.00 | 0.00 | 0.00 | 86 | 1003.9 |
| 20260509073031 | 46 | 349 | 3.5 | 9.6 | 0.00 | 0.00 | 0.00 | 87 | 1003.9 |
| 20260509072530 | 46 | 12 | 3.5 | 10.4 | 0.00 | 0.00 | 0.00 | 87 | 1003.8 |
| 20260509072029 | 46 | 355 | 5.2 | 13.0 | 0.00 | 0.00 | 0.00 | 88 | 1003.9 |
| 20260509071527 | 46 | 59 | 6.1 | 13.0 | 0.00 | 0.00 | 0.00 | 89 | 1003.7 |
| 20260509071026 | 46 | 355 | 5.2 | 13.0 | 0.00 | 0.00 | 0.00 | 90 | 1003.8 |
| 20260509070525 | 46 | 314 | 4.3 | 13.0 | 0.00 | 0.00 | 0.00 | 90 | 1003.8 |
| 20260509070025 | 47 | 340 | 4.3 | 10.4 | 0.00 | 0.00 | 0.00 | 90 | 1003.7 |
| 20260509065525 | 47 | 355 | 6.1 | 10.4 | 0.00 | 0.00 | 0.00 | 90 | 1003.7 |
| 20260509065027 | 47 | 338 | 3.5 | 8.7 | 0.00 | 0.00 | 0.00 | 90 | 1003.7 |
| 20260509064523 | 47 | 346 | 3.5 | 10.4 | 0.00 | 0.00 | 0.00 | 90 | 1003.6 |
| 20260509064027 | 47 | 347 | 4.3 | 10.4 | 0.00 | 0.00 | 0.00 | 90 | 1003.6 |
| 20260509063522 | 47 | 325 | 3.5 | 7.8 | 0.00 | 0.00 | 0.00 | 90 | 1003.5 |
| 20260509063027 | 47 | 302 | 3.5 | 8.7 | 0.00 | 0.00 | 0.00 | 90 | 1003.5 |
| 20260509062521 | 47 | 338 | 3.5 | 8.7 | 0.00 | 0.00 | 0.00 | 90 | 1003.4 |
| 20260509062022 | 47 | 342 | 1.7 | 3.5 | 0.00 | 0.00 | 0.00 | 90 | 1003.3 |
| 20260509061518 | 47 | 336 | 0.9 | 3.5 | 0.00 | 0.00 | 0.00 | 90 | 1003.2 |
| 20260509061030 | 47 | 355 | 1.7 | 3.5 | 0.00 | 0.00 | 0.00 | 90 | 1002.9 |
| 20260509060517 | 47 | 333 | 0.0 | 3.5 | 0.00 | 0.00 | 0.00 | 90 | 1002.8 |
| 20260509060019 | 47 | 344 | 0.0 | 4.3 | 0.00 | 0.00 | 0.00 | 90 | 1002.9 |
| 20260509055517 | 47 | 342 | 1.7 | 4.3 | 0.00 | 0.00 | 0.00 | 90 | 1002.9 |
| 20260509055018 | 47 | 28 | 0.0 | 3.5 | 0.00 | 0.00 | 0.00 | 89 | 1002.8 |
| 20260509054516 | 47 | 360 | 0.9 | 5.2 | 0.00 | 0.00 | 0.00 | 89 | 1002.9 |
| 20260509054016 | 47 | 5 | 1.7 | 5.2 | 0.00 | 0.00 | 0.00 | 89 | 1002.6 |
| 20260509053516 | 47 | 11 | 2.6 | 5.2 | 0.00 | 0.00 | 0.00 | 89 | 1002.6 |
| 20260509053016 | 47 | 346 | 1.7 | 7.0 | 0.00 | 0.00 | 0.00 | 89 | 1002.8 |
| 20260509052514 | 47 | 360 | 2.6 | 7.0 | 0.00 | 0.00 | 0.00 | 89 | 1002.8 |
| 20260509052014 | 47 | 340 | 1.7 | 7.0 | 0.00 | 0.00 | 0.00 | 89 | 1002.8 |
| 20260509051514 | 47 | 15 | 1.7 | 7.0 | 0.00 | 0.00 | 0.00 | 89 | 1002.8 |
| 20260509051014 | 47 | 5 | 2.6 | 8.7 | 0.00 | 0.00 | 0.00 | 88 | 1002.7 |
| 20260509050512 | 47 | 342 | 3.5 | 9.6 | 0.00 | 0.00 | 0.00 | 88 | 1003.0 |
| 20260509050012 | 47 | 351 | 2.6 | 10.4 | 0.00 | 0.00 | 0.00 | 88 | 1003.0 |
| 20260509045513 | 47 | 340 | 5.2 | 10.4 | 0.00 | 0.00 | 0.00 | 88 | 1003.3 |
| 20260509045010 | 47 | 34 | 5.2 | 11.3 | 0.00 | 0.00 | 0.00 | 89 | 1003.0 |
| 20260509044510 | 47 | 351 | 4.3 | 12.2 | 0.00 | 0.00 | 0.00 | 88 | 1003.3 |
| 20260509044015 | 47 | 344 | 6.1 | 15.6 | 0.00 | 0.00 | 0.00 | 88 | 1003.4 |
| 20260509043510 | 48 | 348 | 7.0 | 17.4 | 0.00 | 0.00 | 0.00 | 88 | 1003.4 |
| 20260509043009 | 48 | 355 | 7.0 | 17.4 | 0.00 | 0.00 | 0.00 | 87 | 1003.6 |
| 20260509042512 | 48 | 331 | 10.4 | 16.5 | 0.00 | 0.00 | 0.00 | 87 | 1003.8 |
| 20260509042014 | 49 | 321 | 8.7 | 18.2 | 0.00 | 0.00 | 0.00 | 86 | 1003.9 |
| 20260509041508 | 49 | 323 | 10.4 | 22.6 | 0.00 | 0.00 | 0.00 | 85 | 1003.9 |
| 20260509041007 | 50 | 341 | 10.4 | 22.6 | 0.00 | 0.00 | 0.00 | 84 | 1003.8 |
| 20260509040508 | 50 | 346 | 11.3 | 19.1 | 0.00 | 0.00 | 0.00 | 85 | 1003.8 |
| 20260509040008 | 50 | 355 | 9.6 | 15.6 | 0.00 | 0.00 | 0.00 | 86 | 1003.5 |
| 20260509035508 | 50 | 338 | 8.7 | 18.2 | 0.00 | 0.00 | 0.00 | 86 | 1003.4 |
| 20260509035008 | 50 | 355 | 8.7 | 18.2 | 0.00 | 0.00 | 0.00 | 86 | 1003.5 |
| 20260509034507 | 50 | 344 | 7.8 | 18.2 | 0.00 | 0.00 | 0.00 | 85 | 1003.5 |
| 20260509034006 | 51 | 323 | 10.4 | 24.3 | 0.00 | 0.00 | 0.00 | 84 | 1003.6 |
| 20260509033506 | 51 | 348 | 11.3 | 24.3 | 0.00 | 0.00 | 0.00 | 82 | 1003.6 |
| 20260509033005 | 53 | 355 | 11.3 | 20.0 | 0.00 | 0.00 | 0.00 | 80 | 1003.7 |
| 20260509032504 | 54 | 331 | 11.3 | 18.2 | 0.00 | 0.00 | 0.00 | 75 | 1003.5 |
| 20260509032002 | 55 | 276 | 9.6 | 18.2 | 0.00 | 0.00 | 0.00 | 73 | 1003.1 |
| 20260509031502 | 56 | 340 | 6.1 | 21.7 | 0.00 | 0.00 | 0.00 | 69 | 1002.8 |
| 20260509031104 | 57 | 278 | 10.4 | 21.7 | 0.00 | 0.00 | 0.00 | 66 | 1002.7 |
| 20260509030600 | 59 | 287 | 8.7 | 19.1 | 0.00 | 0.00 | 0.00 | 60 | 1002.4 |
| 20260509030101 | 60 | 296 | 8.7 | 19.1 | 0.00 | 0.00 | 0.00 | 52 | 1002.2 |
| 20260509025604 | 61 | 308 | 4.3 | 9.6 | 0.00 | 0.00 | 0.00 | 49 | 1001.8 |
| 20260509025058 | 61 | 304 | 3.5 | 8.7 | 0.00 | 0.00 | 0.00 | 47 | 1001.5 |
| 20260509024600 | 61 | 317 | 0.9 | 4.3 | 0.00 | 0.00 | 0.00 | 46 | 1000.9 |
| 20260509024057 | 61 | 279 | 2.6 | 4.3 | 0.00 | 0.00 | 0.00 | 45 | 1000.8 |
| 20260509023558 | 61 | 307 | 0.0 | 0.9 | 0.00 | 0.00 | 0.00 | 44 | 1000.5 |
| 20260509023109 | 61 | 307 | 0.0 | 0.0 | 0.00 | 0.00 | 0.00 | 44 | 1000.3 |
| 20260509022600 | 61 | 307 | 0.0 | 0.0 | 0.00 | 0.00 | 0.00 | 43 | 1000.1 |
| 20260509022056 | 61 | 307 | 0.0 | 0.9 | 0.00 | 0.00 | 0.00 | 43 | 1000.1 |
| 20260509021555 | 61 | 307 | 0.0 | 0.9 | 0.00 | 0.00 | 0.00 | 43 | 1000.2 |
| 20260509021054 | 61 | 307 | 0.0 | 0.9 | 0.00 | 0.00 | 0.00 | 42 | 1000.4 |
| 20260509020553 | 61 | 307 | 0.0 | 3.5 | 0.00 | 0.00 | 0.00 | 42 | 1000.4 |
| 20260509020059 | 61 | 307 | 0.0 | 3.5 | 0.00 | 0.00 | 0.00 | 42 | 1000.5 |
| 20260509015553 | 61 | 293 | 0.9 | 2.6 | 0.00 | 0.00 | 0.00 | 42 | 1000.7 |
| 20260509015055 | 62 | 292 | 0.0 | 2.6 | 0.00 | 0.00 | 0.00 | 42 | 1000.7 |
| 20260509014553 | 62 | 296 | 0.0 | 5.2 | 0.00 | 0.00 | 0.00 | 41 | 1000.8 |
| 20260509014051 | 62 | 296 | 0.9 | 7.0 | 0.00 | 0.00 | 0.00 | 40 | 1000.8 |
| 20260509013551 | 62 | 297 | 0.9 | 7.0 | 0.00 | 0.00 | 0.00 | 40 | 1000.9 |
| 20260509013055 | 63 | 317 | 0.9 | 8.7 | 0.00 | 0.00 | 0.00 | 40 | 1000.9 |
| 20260509012550 | 63 | 295 | 2.6 | 8.7 | 0.00 | 0.00 | 0.00 | 40 | 1000.9 |
| 20260509012050 | 63 | 338 | 2.6 | 8.7 | 0.00 | 0.00 | 0.00 | 39 | 1001.0 |
| 20260509011556 | 63 | 313 | 3.5 | 8.7 | 0.00 | 0.00 | 0.00 | 39 | 1001.0 |
| 20260509011049 | 64 | 284 | 2.6 | 12.2 | 0.00 | 0.00 | 0.00 | 39 | 1001.1 |
| 20260509010549 | 64 | 309 | 6.1 | 12.2 | 0.00 | 0.00 | 0.00 | 38 | 1001.0 |
| 20260509010052 | 64 | 331 | 5.2 | 15.6 | 0.00 | 0.00 | 0.00 | 38 | 1001.0 |
| 20260509005549 | 64 | 247 | 7.8 | 15.6 | 0.00 | 0.00 | 0.00 | 37 | 1001.0 |
| 20260509005047 | 65 | 324 | 7.8 | 13.9 | 0.00 | 0.00 | 0.00 | 37 | 1001.1 |
| 20260509004547 | 65 | 304 | 8.7 | 13.9 | 0.00 | 0.00 | 0.00 | 38 | 1001.2 |
| 20260509004048 | 65 | 320 | 4.3 | 13.9 | 0.00 | 0.00 | 0.00 | 38 | 1001.4 |
| 20260509003548 | 65 | 325 | 6.1 | 13.9 | 0.00 | 0.00 | 0.00 | 37 | 1001.4 |
| 20260509003047 | 65 | 329 | 6.1 | 10.4 | 0.00 | 0.00 | 0.00 | 37 | 1001.4 |
| 20260509002546 | 65 | 281 | 5.2 | 13.9 | 0.00 | 0.00 | 0.00 | 37 | 1001.4 |
| 20260509002046 | 65 | 318 | 6.1 | 13.9 | 0.00 | 0.00 | 0.00 | 37 | 1001.5 |
| 20260509001546 | 66 | 346 | 7.8 | 13.9 | 0.00 | 0.00 | 0.00 | 36 | 1001.5 |
| 20260509001046 | 66 | 281 | 6.1 | 14.8 | 0.00 | 0.00 | 0.00 | 36 | 1001.4 |
| 20260509000546 | 66 | 315 | 7.8 | 16.5 | 0.00 | 0.00 | 0.00 | 35 | 1001.6 |
| 20260509000044 | 66 | 292 | 6.1 | 18.2 | 0.00 | 0.00 | 0.00 | 36 | 1001.5 |
| 20260508235544 | 66 | 302 | 10.4 | 18.2 | 0.00 | 0.00 | 0.00 | 35 | 1001.5 |
| 20260508235043 | 66 | 337 | 9.6 | 18.2 | 0.00 | 0.00 | 0.00 | 35 | 1001.6 |
| 20260508234543 | 66 | 346 | 5.2 | 18.2 | 0.00 | 0.00 | 0.00 | 35 | 1001.6 |
| 20260508234046 | 66 | 290 | 8.7 | 18.2 | 0.00 | 0.00 | 0.00 | 35 | 1001.6 |
| 20260508233542 | 66 | 275 | 8.7 | 16.5 | 0.00 | 0.00 | 0.00 | 34 | 1001.7 |
| 20260508233042 | 66 | 261 | 4.3 | 15.6 | 0.00 | 0.00 | 0.00 | 35 | 1001.8 |
| 20260508232540 | 66 | 315 | 4.3 | 26.1 | 0.00 | 0.00 | 0.00 | 35 | 1001.9 |
| 20260508232040 | 66 | 327 | 8.7 | 26.1 | 0.00 | 0.00 | 0.00 | 35 | 1002.0 |
| 20260508231540 | 66 | 306 | 7.8 | 16.5 | 0.00 | 0.00 | 0.00 | 34 | 1002.1 |
| 20260508231039 | 66 | 329 | 7.8 | 16.5 | 0.00 | 0.00 | 0.00 | 34 | 1002.0 |
| 20260508230538 | 66 | 261 | 7.8 | 17.4 | 0.00 | 0.00 | 0.00 | 34 | 1002.1 |
| 20260508230043 | 65 | 254 | 8.7 | 17.4 | 0.00 | 0.00 | 0.00 | 35 | 1002.1 |
| 20260508225538 | 65 | 325 | 7.8 | 15.6 | 0.00 | 0.00 | 0.00 | 35 | 1002.3 |
| 20260508225038 | 66 | 314 | 5.2 | 14.8 | 0.00 | 0.00 | 0.00 | 34 | 1002.3 |
| 20260508224538 | 66 | 355 | 4.3 | 18.2 | 0.00 | 0.00 | 0.00 | 34 | 1002.3 |
| 20260508224038 | 66 | 319 | 8.7 | 18.2 | 0.00 | 0.00 | 0.00 | 34 | 1002.3 |
| 20260508223537 | 66 | 227 | 7.0 | 17.4 | 0.00 | 0.00 | 0.00 | 34 | 1002.3 |
| 20260508223036 | 66 | 329 | 8.7 | 20.9 | 0.00 | 0.00 | 0.00 | 34 | 1002.5 |
| 20260508222535 | 66 | 298 | 7.0 | 21.7 | 0.00 | 0.00 | 0.00 | 33 | 1002.4 |
| 20260508222035 | 66 | 274 | 13.9 | 21.7 | 0.00 | 0.00 | 0.00 | 33 | 1002.7 |
| 20260508221535 | 65 | 328 | 9.6 | 19.1 | 0.00 | 0.00 | 0.00 | 33 | 1002.6 |
| 20260508221034 | 65 | 296 | 6.1 | 20.0 | 0.00 | 0.00 | 0.00 | 33 | 1002.7 |
| 20260508220533 | 65 | 338 | 10.4 | 20.0 | 0.00 | 0.00 | 0.00 | 34 | 1002.7 |
| 20260508220034 | 64 | 336 | 7.0 | 20.0 | 0.00 | 0.00 | 0.00 | 34 | 1002.8 |
| 20260508215534 | 64 | 284 | 10.4 | 20.0 | 0.00 | 0.00 | 0.00 | 33 | 1002.9 |
| 20260508215034 | 66 | 263 | 7.8 | 20.0 | 0.00 | 0.00 | 0.00 | 32 | 1002.9 |
| 20260508214535 | 65 | 323 | 11.3 | 20.0 | 0.00 | 0.00 | 0.00 | 32 | 1003.0 |
| 20260508214033 | 65 | 272 | 8.7 | 20.9 | 0.00 | 0.00 | 0.00 | 33 | 1003.0 |
| 20260508213533 | 65 | 279 | 10.4 | 20.9 | 0.00 | 0.00 | 0.00 | 32 | 1003.1 |
| 20260508213039 | 65 | 253 | 9.6 | 21.7 | 0.00 | 0.00 | 0.00 | 32 | 1003.0 |
| 20260508212535 | 66 | 26 | 12.2 | 21.7 | 0.00 | 0.00 | 0.00 | 31 | 1003.0 |
| 20260508212032 | 66 | 315 | 9.6 | 20.9 | 0.00 | 0.00 | 0.00 | 33 | 1003.0 |
| 20260508211537 | 66 | 5 | 11.3 | 20.9 | 0.00 | 0.00 | 0.00 | 32 | 1003.0 |
| 20260508211034 | 66 | 213 | 10.4 | 22.6 | 0.00 | 0.00 | 0.00 | 32 | 1002.9 |
| 20260508210532 | 66 | 272 | 12.2 | 22.6 | 0.00 | 0.00 | 0.00 | 32 | 1003.0 |
| 20260508210031 | 66 | 325 | 13.0 | 21.7 | 0.00 | 0.00 | 0.00 | 32 | 1002.9 |
| 20260508205530 | 66 | 278 | 9.6 | 20.9 | 0.00 | 0.00 | 0.00 | 31 | 1003.0 |
| 20260508205030 | 66 | 327 | 9.6 | 20.9 | 0.00 | 0.00 | 0.00 | 32 | 1002.8 |
| 20260508204531 | 66 | 346 | 9.6 | 20.0 | 0.00 | 0.00 | 0.00 | 32 | 1002.8 |
| 20260508204032 | 66 | 325 | 8.7 | 25.2 | 0.00 | 0.00 | 0.00 | 31 | 1002.9 |
| 20260508203529 | 66 | 336 | 13.0 | 25.2 | 0.00 | 0.00 | 0.00 | 31 | 1002.9 |
| 20260508203035 | 66 | 323 | 13.9 | 25.2 | 0.00 | 0.00 | 0.00 | 33 | 1002.9 |
| 20260508202531 | 66 | 320 | 13.0 | 26.9 | 0.00 | 0.00 | 0.00 | 32 | 1002.9 |
| 20260508202029 | 66 | 355 | 15.6 | 26.9 | 0.00 | 0.00 | 0.00 | 32 | 1002.8 |
| 20260508201529 | 66 | 284 | 13.0 | 23.5 | 0.00 | 0.00 | 0.00 | 32 | 1002.8 |
| 20260508201028 | 66 | 321 | 13.0 | 24.3 | 0.00 | 0.00 | 0.00 | 31 | 1002.8 |
| 20260508200528 | 66 | 329 | 10.4 | 24.3 | 0.00 | 0.00 | 0.00 | 32 | 1002.8 |
| 20260508200117 | 66 | 311 | 13.0 | 20.9 | 0.00 | 0.00 | 0.00 | 32 | 1002.8 |
| 20260508195022 | 66 | 310 | 13.9 | 26.1 | 0.00 | 0.00 | 0.00 | 31 | 1002.8 |
| 20260508194530 | 66 | 296 | 13.0 | 29.5 | 0.00 | 0.00 | 0.00 | 32 | 1002.7 |
| 20260508194020 | 66 | 294 | 15.6 | 29.5 | 0.00 | 0.00 | 0.00 | 32 | 1002.7 |
| 20260508193520 | 66 | 290 | 6.1 | 22.6 | 0.00 | 0.00 | 0.00 | 32 | 1002.7 |
| 20260508193019 | 66 | 334 | 12.2 | 30.4 | 0.00 | 0.00 | 0.00 | 32 | 1002.7 |
| 20260508192521 | 66 | 290 | 9.6 | 30.4 | 0.00 | 0.00 | 0.00 | 31 | 1002.8 |
| 20260508192020 | 66 | 315 | 10.4 | 22.6 | 0.00 | 0.00 | 0.00 | 34 | 1002.6 |
| 20260508191526 | 66 | 312 | 11.3 | 22.6 | 0.00 | 0.00 | 0.00 | 34 | 1002.8 |
| 20260508191018 | 66 | 221 | 7.0 | 20.9 | 0.00 | 0.00 | 0.00 | 34 | 1002.7 |
| 20260508190518 | 65 | 231 | 9.6 | 25.2 | 0.00 | 0.00 | 0.00 | 34 | 1002.8 |
| 20260508190018 | 66 | 157 | 11.3 | 25.2 | 0.00 | 0.00 | 0.00 | 34 | 1002.7 |
| 20260508185517 | 66 | 342 | 11.3 | 24.3 | 0.00 | 0.00 | 0.00 | 33 | 1002.7 |
| 20260508185019 | 66 | 319 | 10.4 | 18.2 | 0.00 | 0.00 | 0.00 | 34 | 1002.6 |
| 20260508184518 | 67 | 334 | 10.4 | 19.1 | 0.00 | 0.00 | 0.00 | 32 | 1002.7 |
| 20260508184016 | 67 | 348 | 7.0 | 19.1 | 0.00 | 0.00 | 0.00 | 30 | 1002.5 |
| 20260508183517 | 67 | 278 | 8.7 | 25.2 | 0.00 | 0.00 | 0.00 | 29 | 1002.5 |
| 20260508183023 | 67 | 338 | 9.6 | 25.2 | 0.00 | 0.00 | 0.00 | 28 | 1002.4 |
| 20260508182517 | 67 | 297 | 7.8 | 24.3 | 0.00 | 0.00 | 0.00 | 28 | 1002.5 |
| 20260508182015 | 67 | 308 | 9.6 | 24.3 | 0.00 | 0.00 | 0.00 | 28 | 1002.5 |
| 20260508181514 | 67 | 260 | 6.1 | 18.2 | 0.00 | 0.00 | 0.00 | 28 | 1002.4 |